Location: Unspecified
(0.0000°N, 0.0000°E)
Time: 09:07:45
(UTC+00:00)

Explorer 11/Cluster Stage 4 - Pass Details

Date: 16 July 2020
Orbit: 467 x 1259 km, 28.8° (Epoch: 03 August)

Event Time Altitude Azimuth Distance (km) Brightness Sun altitude
Rises 17:45:25 0° 295° (WNW) 4,053 13.2 4.8°
Reaches altitude 10° 17:48:13 10° 292° (WNW) 3,152 12.6 4.2°
Maximum altitude 17:56:16 67° 211° (SSW) 1,344 7.9 2.3°
Drops below altitude 10° 18:04:20 10° 129° (SE) 3,156 9.1 0.4°
Sets 18:07:09 0° 127° (SE) 4,058 9.6 -0.2°
